GW3780 Weather Reports


Display with metric or nautical units.
time (UTC)temp
F
wind
direction
speed
MPH
gust
MPH
rain 1hr
in
rain 24hr
in
rain mn
in
humidity
%
barometer
mb
20260509203511 77 292 2.0 3.0 0.00 0.00 0.00 50 1009.4
20260509203009 76 297 2.0 6.0 0.00 0.00 0.00 51 1009.5
20260509202503 76 195 2.0 6.0 0.00 0.00 0.00 51 1009.3
20260509201959 75 296 4.0 5.0 0.00 0.00 0.00 51 1009.6
20260509201454 76 223 5.0 5.0 0.00 0.00 0.00 48 1009.4
20260509200952 76 203 2.0 6.0 0.00 0.00 0.00 49 1009.5
20260509200447 75 263 2.0 5.0 0.00 0.00 0.00 50 1009.8
20260509195943 75 279 2.0 4.0 0.00 0.00 0.00 51 1009.7
20260509195439 75 248 3.0 7.0 0.00 0.00 0.00 51 1010.0
20260509194938 76 288 3.0 5.0 0.00 0.00 0.00 50 1009.8
20260509194434 76 313 1.0 4.0 0.00 0.00 0.00 50 1010.0
20260509193931 77 168 3.0 4.0 0.00 0.00 0.00 49 1010.0
20260509193431 77 181 2.0 4.0 0.00 0.00 0.00 47 1010.0
20260509192927 77 246 3.0 3.0 0.00 0.00 0.00 48 1010.3
20260509192424 77 234 5.0 6.0 0.00 0.00 0.00 47 1010.2
20260509191919 76 227 2.0 3.0 0.00 0.00 0.00 48 1009.9
20260509191414 76 169 3.0 5.0 0.00 0.00 0.00 49 1010.1
20260509190911 77 150 2.0 4.0 0.00 0.00 0.00 48 1010.3
20260509190408 75 258 2.0 5.0 0.00 0.00 0.00 49 1010.5
20260509185906 77 254 2.0 2.0 0.00 0.00 0.00 49 1010.5
20260509185403 77 292 3.0 4.0 0.00 0.00 0.00 48 1010.5
20260509184859 77 209 2.0 3.0 0.00 0.00 0.00 49 1010.7
20260509184356 76 274 2.0 3.0 0.00 0.00 0.00 50 1010.7
20260509183854 78 236 0.0 2.0 0.00 0.00 0.00 49 1010.8
20260509183348 76 211 0.0 4.0 0.00 0.00 0.00 51 1011.0
20260509182844 74 248 2.0 4.0 0.00 0.00 0.00 52 1010.9
20260509182342 73 210 2.0 5.0 0.00 0.00 0.00 53 1011.3
20260509181839 73 345 1.0 5.0 0.00 0.00 0.00 53 1010.8
20260509181336 73 280 2.0 5.0 0.00 0.00 0.00 53 1011.0
20260509180833 74 278 1.0 5.0 0.00 0.00 0.00 52 1011.2
20260509180329 75 262 1.0 4.0 0.00 0.00 0.00 50 1011.2
20260509175826 75 266 2.0 6.0 0.00 0.00 0.00 49 1011.4
20260509175322 75 248 2.0 4.0 0.00 0.00 0.00 50 1011.2
20260509174818 74 246 2.0 7.0 0.00 0.00 0.00 51 1011.2
20260509174314 75 229 2.0 4.0 0.00 0.00 0.00 50 1011.5
20260509173810 72 135 0.0 6.0 0.00 0.00 0.00 54 1011.3
20260509173306 72 191 3.0 9.0 0.00 0.00 0.00 54 1011.6
20260509172802 72 321 0.0 4.0 0.00 0.00 0.00 54 1011.4
20260509172259 74 214 4.0 4.0 0.00 0.00 0.00 51 1011.5
20260509171754 73 179 2.0 6.0 0.00 0.00 0.00 53 1011.5
20260509171251 73 157 2.0 4.0 0.00 0.00 0.00 52 1011.5
20260509170747 73 216 2.0 6.0 0.00 0.00 0.00 53 1011.7
20260509170243 73 223 2.0 4.0 0.00 0.00 0.00 54 1011.7
20260509165742 71 283 2.0 5.0 0.00 0.00 0.00 57 1012.0
20260509165238 72 252 2.0 4.0 0.00 0.00 0.00 55 1012.0
20260509164734 71 130 1.0 2.0 0.00 0.00 0.00 55 1012.0
20260509164229 73 211 2.0 9.0 0.00 0.00 0.00 53 1012.0
20260509163727 72 186 2.0 4.0 0.00 0.00 0.00 54 1012.4
20260509163223 72 214 2.0 4.0 0.00 0.00 0.00 55 1012.2
20260509162721 71 187 0.0 6.0 0.00 0.00 0.00 55 1012.2
20260509162216 71 150 1.0 5.0 0.00 0.00 0.00 55 1012.1
20260509161712 69 266 1.0 4.0 0.00 0.00 0.00 55 1012.2
20260509161209 71 212 3.0 9.0 0.00 0.00 0.00 54 1012.2
20260509160704 71 246 2.0 6.0 0.00 0.00 0.00 55 1012.1
20260509160200 70 175 2.0 5.0 0.00 0.00 0.00 54 1012.5
20260509155655 70 155 4.0 5.0 0.00 0.00 0.00 54 1012.2
20260509155152 69 180 0.0 5.0 0.00 0.00 0.00 53 1012.4
20260509154648 69 180 6.0 6.0 0.00 0.00 0.00 53 1012.7
20260509154146 70 185 2.0 6.0 0.00 0.00 0.00 55 1012.4
20260509153642 70 215 2.0 6.0 0.00 0.00 0.00 56 1013.0
20260509153139 70 269 3.0 6.0 0.00 0.00 0.00 54 1012.8
20260509152634 69 295 0.0 4.0 0.00 0.00 0.00 57 1012.9
20260509152132 70 227 2.0 4.0 0.00 0.00 0.00 57 1012.7
20260509151628 69 173 0.0 6.0 0.00 0.00 0.00 58 1013.0
20260509151126 69 312 1.0 5.0 0.00 0.00 0.00 58 1013.0
20260509150624 70 201 2.0 4.0 0.00 0.00 0.00 60 1012.9
20260509150122 69 189 0.0 5.0 0.00 0.00 0.00 63 1012.9
20260509145617 68 241 2.0 3.0 0.00 0.00 0.00 65 1013.2
20260509145112 67 181 0.0 5.0 0.00 0.00 0.00 66 1013.2
20260509144610 66 222 2.0 4.0 0.00 0.00 0.00 66 1013.4
20260509144106 66 210 3.0 7.0 0.00 0.00 0.00 67 1013.4
20260509143603 66 282 1.0 3.0 0.00 0.00 0.00 68 1013.6
20260509143101 66 200 2.0 3.0 0.00 0.00 0.00 68 1013.7
20260509142556 65 257 2.0 5.0 0.00 0.00 0.00 69 1013.8
20260509142053 65 271 1.0 4.0 0.00 0.00 0.00 70 1013.9
20260509141549 65 184 2.0 4.0 0.00 0.00 0.00 70 1014.0
20260509141046 65 161 3.0 5.0 0.00 0.00 0.00 71 1014.0
20260509140543 64 316 2.0 6.0 0.00 0.00 0.00 71 1013.8
20260509140041 64 296 0.0 2.0 0.00 0.00 0.00 73 1013.7
20260509135537 64 166 0.0 2.0 0.00 0.00 0.00 72 1013.8
20260509135035 64 271 2.0 3.0 0.00 0.00 0.00 73 1013.7
20260509134532 63 289 2.0 4.0 0.00 0.00 0.00 73 1013.9
20260509134030 64 216 2.0 2.0 0.00 0.00 0.00 73 1013.9
20260509133526 63 244 2.0 3.0 0.00 0.00 0.00 74 1014.2
20260509133024 63 310 1.0 3.0 0.00 0.00 0.00 75 1014.1
20260509132522 63 194 1.0 4.0 0.00 0.00 0.00 75 1014.2
20260509132020 63 207 1.0 3.0 0.00 0.00 0.00 75 1014.3
20260509131516 62 180 5.0 5.0 0.00 0.00 0.00 75 1014.2
20260509131013 62 217 6.0 6.0 0.00 0.00 0.00 75 1014.1
20260509130508 62 195 1.0 5.0 0.00 0.00 0.00 75 1014.2
20260509130006 62 260 1.0 2.0 0.00 0.00 0.00 76 1014.3
20260509125502 61 269 0.0 3.0 0.00 0.00 0.00 77 1014.0
20260509124958 61 231 1.0 4.0 0.00 0.00 0.00 78 1014.2
20260509124455 61 186 2.0 6.0 0.00 0.00 0.00 78 1014.1
20260509123952 60 239 0.0 4.0 0.00 0.00 0.00 79 1014.1
20260509123450 60 217 2.0 5.0 0.00 0.00 0.00 79 1014.0
20260509122945 60 258 2.0 3.0 0.00 0.00 0.00 80 1014.1
20260509122443 59 264 1.0 2.0 0.00 0.00 0.00 81 1014.2
20260509121939 59 246 0.0 4.0 0.00 0.00 0.00 81 1014.3
20260509121436 59 246 0.0 4.0 0.00 0.00 0.00 82 1014.2
20260509120934 59 294 1.0 3.0 0.00 0.00 0.00 82 1014.3
20260509120432 58 290 0.0 3.0 0.00 0.00 0.00 82 1014.5
20260509115930 58 269 0.0 2.0 0.00 0.00 0.00 83 1014.5
20260509115427 58 233 4.0 4.0 0.00 0.00 0.00 83 1014.3
20260509114924 57 193 1.0 6.0 0.00 0.00 0.00 83 1014.3
20260509114423 57 173 2.0 6.0 0.00 0.00 0.00 83 1014.1
20260509113922 57 279 1.0 4.0 0.00 0.00 0.00 83 1014.2
20260509113419 57 254 2.0 2.0 0.00 0.00 0.00 83 1014.1
20260509112916 57 229 2.0 3.0 0.00 0.00 0.00 83 1014.0
20260509112413 57 151 0.0 3.0 0.00 0.00 0.00 83 1014.2
20260509111910 57 222 1.0 3.0 0.00 0.00 0.00 83 1013.9
20260509111406 56 276 0.0 6.0 0.00 0.00 0.00 85 1014.1
20260509110904 55 260 1.0 2.0 0.00 0.00 0.00 85 1013.9
20260509110400 55 157 0.0 2.0 0.00 0.00 0.00 86 1013.9
20260509105859 55 268 1.0 2.0 0.00 0.00 0.00 86 1014.0
20260509105356 54 209 0.0 2.0 0.00 0.00 0.00 86 1013.9
20260509104853 54 139 0.0 2.0 0.00 0.00 0.00 87 1014.2
20260509104349 54 252 2.0 4.0 0.00 0.00 0.00 87 1014.1
20260509103847 54 143 0.0 3.0 0.00 0.00 0.00 87 1013.9
20260509103344 53 224 0.0 1.0 0.00 0.00 0.00 87 1014.1
20260509102843 54 330 0.0 2.0 0.00 0.00 0.00 86 1014.0
20260509102340 54 178 0.0 3.0 0.00 0.00 0.00 86 1013.9
20260509101835 54 183 0.0 2.0 0.00 0.00 0.00 86 1013.7
20260509101332 54 250 0.0 2.0 0.00 0.00 0.00 85 1014.0
20260509100830 54 299 0.0 2.0 0.00 0.00 0.00 85 1013.8
20260509100327 54 250 0.0 2.0 0.00 0.00 0.00 84 1013.8
20260509095823 54 4 0.0 3.0 0.00 0.00 0.00 84 1013.8
20260509095321 54 277 0.0 1.0 0.00 0.00 0.00 84 1013.8
20260509094818 54 200 1.0 2.0 0.00 0.00 0.00 83 1014.1
20260509094314 54 290 1.0 2.0 0.00 0.00 0.00 83 1013.8
20260509093812 54 213 0.0 2.0 0.00 0.00 0.00 82 1014.1
20260509093309 54 158 0.0 2.0 0.00 0.00 0.00 82 1014.0
20260509092808 54 197 1.0 2.0 0.00 0.00 0.00 82 1014.1
20260509092306 54 239 0.0 2.0 0.00 0.00 0.00 81 1014.0
20260509091803 55 177 1.0 3.0 0.00 0.00 0.00 80 1014.1
20260509091259 54 191 3.0 3.0 0.00 0.00 0.00 80 1014.0
20260509090757 54 198 1.0 2.0 0.00 0.00 0.00 80 1014.0
20260509090254 54 204 1.0 2.0 0.00 0.00 0.00 80 1014.1
20260509085751 54 32 0.0 2.0 0.00 0.00 0.00 79 1014.0
20260509085248 55 55 0.0 2.0 0.00 0.00 0.00 78 1014.1
20260509084745 55 135 0.0 1.0 0.00 0.00 0.00 78 1014.0
20260509084242 55 336 0.0 2.0 0.00 0.00 0.00 77 1013.9
20260509083740 55 235 1.0 2.0 0.00 0.00 0.00 77 1014.1
20260509083236 55 335 0.0 2.0 0.00 0.00 0.00 77 1013.8
20260509082733 55 251 1.0 2.0 0.00 0.00 0.00 76 1013.9
20260509082229 56 213 2.0 2.0 0.00 0.00 0.00 75 1013.8
20260509081726 56 187 2.0 3.0 0.00 0.00 0.00 75 1013.6
20260509081224 56 212 3.0 3.0 0.00 0.00 0.00 74 1013.6
20260509080722 56 165 2.0 3.0 0.00 0.00 0.00 75 1013.8
20260509080219 55 238 1.0 2.0 0.00 0.00 0.00 76 1013.8
20260509075717 55 2 1.0 2.0 0.00 0.00 0.00 75 1013.8
20260509075215 56 226 0.0 3.0 0.00 0.00 0.00 74 1013.6
20260509074711 55 23 0.0 2.0 0.00 0.00 0.00 75 1014.0
20260509074209 55 199 0.0 2.0 0.00 0.00 0.00 76 1014.1
20260509073705 55 356 0.0 1.0 0.00 0.00 0.00 76 1014.0
20260509073201 55 50 0.0 1.0 0.00 0.00 0.00 76 1014.0
20260509072658 55 50 0.0 1.0 0.00 0.00 0.00 76 1014.2
20260509072155 55 339 1.0 1.0 0.00 0.00 0.00 75 1014.2
20260509071652 55 224 2.0 2.0 0.00 0.00 0.00 74 1014.4
20260509071149 55 211 0.0 1.0 0.00 0.00 0.00 73 1014.3
20260509070646 56 203 0.0 2.0 0.00 0.00 0.00 73 1014.5
20260509070142 56 195 1.0 2.0 0.00 0.00 0.00 73 1014.3
20260509065638 56 135 0.0 2.0 0.00 0.00 0.00 72 1014.7
20260509065134 56 230 2.0 2.0 0.00 0.00 0.00 72 1014.6
20260509064631 56 72 0.0 2.0 0.00 0.00 0.00 71 1014.6
20260509064129 56 224 2.0 3.0 0.00 0.00 0.00 71 1014.8
20260509063625 56 217 0.0 3.0 0.00 0.00 0.00 70 1015.0
20260509063117 56 216 0.0 2.0 0.00 0.00 0.00 69 1014.9
20260509062614 56 269 0.0 3.0 0.00 0.00 0.00 68 1015.1
20260509062111 56 248 0.0 2.0 0.00 0.00 0.00 68 1014.9
20260509061608 56 276 1.0 2.0 0.00 0.00 0.00 68 1015.0
20260509061105 56 326 0.0 2.0 0.00 0.00 0.00 67 1015.2
20260509060603 57 190 2.0 3.0 0.00 0.00 0.00 66 1015.5
20260509060058 57 99 0.0 2.0 0.00 0.00 0.00 66 1015.3
20260509055554 57 261 2.0 3.0 0.00 0.00 0.00 65 1015.3
20260509055050 57 198 0.0 2.0 0.00 0.00 0.00 65 1015.2
20260509054547 57 221 2.0 2.0 0.00 0.00 0.00 64 1015.2
20260509054045 57 286 0.0 2.0 0.00 0.00 0.00 64 1015.5
20260509053543 57 305 0.0 2.0 0.00 0.00 0.00 64 1015.2
20260509053040 57 237 0.0 2.0 0.00 0.00 0.00 63 1015.2
20260509052538 58 293 0.0 3.0 0.00 0.00 0.00 63 1015.1
20260509052035 58 230 0.0 2.0 0.00 0.00 0.00 63 1015.2
20260509051533 58 186 0.0 2.0 0.00 0.00 0.00 62 1015.0
20260509051030 58 231 1.0 3.0 0.00 0.00 0.00 61 1015.0
20260509050527 58 213 0.0 2.0 0.00 0.00 0.00 62 1015.0
20260509050023 58 315 0.0 2.0 0.00 0.00 0.00 61 1014.9
20260509045520 58 244 0.0 2.0 0.00 0.00 0.00 61 1014.9
20260509045017 58 180 1.0 2.0 0.00 0.00 0.00 62 1014.7
20260509044515 58 283 0.0 1.0 0.00 0.00 0.00 61 1014.7
20260509044013 58 174 0.0 1.0 0.00 0.00 0.00 60 1014.7
20260509043508 58 230 0.0 2.0 0.00 0.00 0.00 60 1014.5
20260509043004 58 49 0.0 0.0 0.00 0.00 0.00 60 1014.8
20260509042501 58 213 0.0 3.0 0.00 0.00 0.00 60 1014.9
20260509041956 58 228 0.0 2.0 0.00 0.00 0.00 60 1014.9
20260509041454 58 82 0.0 1.0 0.00 0.00 0.00 60 1015.0
20260509040952 58 66 0.0 0.0 0.00 0.00 0.00 59 1014.9
20260509040449 59 158 0.0 2.0 0.00 0.00 0.00 58 1015.1
20260509035946 59 127 0.0 1.0 0.00 0.00 0.00 58 1014.9
20260509035443 59 89 0.0 1.0 0.00 0.00 0.00 57 1014.9
20260509034939 59 49 0.0 2.0 0.00 0.00 0.00 56 1015.0
20260509034437 60 323 0.0 2.0 0.00 0.00 0.00 55 1015.2
20260509033934 60 149 2.0 2.0 0.00 0.00 0.00 55 1015.2
20260509033431 60 240 1.0 2.0 0.00 0.00 0.00 54 1014.8
20260509032928 60 301 1.0 3.0 0.00 0.00 0.00 54 1015.0
20260509032425 60 212 0.0 2.0 0.00 0.00 0.00 53 1015.4
20260509031923 60 240 2.0 2.0 0.00 0.00 0.00 53 1015.3
20260509031420 61 330 0.0 3.0 0.00 0.00 0.00 52 1015.3
20260509030917 61 238 2.0 3.0 0.00 0.00 0.00 52 1015.1
20260509030415 61 264 2.0 4.0 0.00 0.00 0.00 51 1015.3
20260509025912 61 257 0.0 3.0 0.00 0.00 0.00 51 1015.3
20260509025408 61 184 2.0 3.0 0.00 0.00 0.00 50 1015.2
20260509024903 61 214 1.0 4.0 0.00 0.00 0.00 50 1015.4
20260509024359 61 222 1.0 2.0 0.00 0.00 0.00 49 1015.3
20260509023856 61 206 3.0 3.0 0.00 0.00 0.00 49 1015.3
20260509023354 61 194 2.0 2.0 0.00 0.00 0.00 48 1015.1
20260509022850 62 199 0.0 4.0 0.00 0.00 0.00 48 1015.2
20260509022347 62 250 2.0 4.0 0.00 0.00 0.00 47 1015.3
20260509021844 62 222 1.0 4.0 0.00 0.00 0.00 47 1015.1
20260509021341 62 233 1.0 3.0 0.00 0.00 0.00 47 1015.4
20260509020839 62 267 0.0 5.0 0.00 0.00 0.00 46 1015.2
20260509020337 62 220 2.0 2.0 0.00 0.00 0.00 47 1015.2
20260509015834 62 268 1.0 2.0 0.00 0.00 0.00 46 1014.9
20260509015332 62 273 0.0 4.0 0.00 0.00 0.00 46 1014.9
20260509014829 62 186 0.0 2.0 0.00 0.00 0.00 46 1015.0
20260509014326 62 127 1.0 2.0 0.00 0.00 0.00 46 1015.0
20260509013822 62 40 0.0 2.0 0.00 0.00 0.00 46 1015.1
20260509013319 62 304 1.0 2.0 0.00 0.00 0.00 45 1014.9
20260509012815 62 315 0.0 2.0 0.00 0.00 0.00 45 1015.0
20260509012312 63 323 1.0 2.0 0.00 0.00 0.00 45 1014.9
20260509011809 63 242 2.0 2.0 0.00 0.00 0.00 44 1014.7
20260509011306 63 248 1.0 2.0 0.00 0.00 0.00 44 1014.6
20260509010804 63 314 0.0 2.0 0.00 0.00 0.00 44 1014.6
20260509010301 64 150 0.0 2.0 0.00 0.00 0.00 43 1014.7
20260509005758 64 274 1.0 2.0 0.00 0.00 0.00 43 1014.8
20260509005256 64 293 0.0 3.0 0.00 0.00 0.00 42 1015.0
20260509004755 64 205 2.0 6.0 0.00 0.00 0.00 42 1014.7
20260509004253 64 341 0.0 3.0 0.00 0.00 0.00 42 1014.7
20260509003751 65 205 0.0 2.0 0.00 0.00 0.00 42 1014.8
20260509003248 65 220 0.0 2.0 0.00 0.00 0.00 42 1014.7
20260509002745 65 237 2.0 2.0 0.00 0.00 0.00 41 1014.6
20260509002243 65 192 2.0 2.0 0.00 0.00 0.00 41 1014.8
20260509001740 66 256 2.0 3.0 0.00 0.00 0.00 41 1014.5
20260509001236 66 197 2.0 3.0 0.00 0.00 0.00 41 1014.8
20260509000734 66 208 3.0 3.0 0.00 0.00 0.00 41 1014.7
20260509000233 66 330 1.0 2.0 0.00 0.00 0.00 40 1014.5
20260508235728 67 279 0.0 3.0 0.00 0.00 0.00 40 1014.5
20260508235224 67 147 0.0 2.0 0.00 0.00 0.00 40 1014.3
20260508234721 67 293 0.0 1.0 0.00 0.00 0.00 40 1014.3
20260508234217 68 209 2.0 2.0 0.00 0.00 0.00 39 1014.1
20260508233712 68 171 0.0 5.0 0.00 0.00 0.00 38 1014.0
20260508233209 68 293 0.0 2.0 0.00 0.00 0.00 40 1014.1
20260508232706 68 110 0.0 2.0 0.00 0.00 0.00 38 1014.1
20260508232202 68 281 2.0 4.0 0.00 0.00 0.00 37 1014.1
20260508231701 68 193 2.0 2.0 0.00 0.00 0.00 37 1014.0
20260508231157 69 89 0.0 4.0 0.00 0.00 0.00 36 1014.1
20260508230654 69 211 0.0 3.0 0.00 0.00 0.00 36 1013.8
20260508230150 69 175 0.0 4.0 0.00 0.00 0.00 35 1014.0
20260508225649 69 272 1.0 2.0 0.00 0.00 0.00 35 1014.1
20260508225144 69 224 0.0 2.0 0.00 0.00 0.00 35 1014.0
20260508224642 69 257 0.0 3.0 0.00 0.00 0.00 35 1014.0
20260508224140 69 338 1.0 2.0 0.00 0.00 0.00 34 1014.1
20260508223637 69 247 2.0 3.0 0.00 0.00 0.00 34 1014.0
20260508223134 69 219 0.0 2.0 0.00 0.00 0.00 35 1014.3
20260508222632 69 243 0.0 5.0 0.00 0.00 0.00 34 1014.2
20260508222129 69 251 0.0 3.0 0.00 0.00 0.00 34 1014.0
20260508221625 69 184 3.0 6.0 0.00 0.00 0.00 33 1014.4
20260508221120 70 222 3.0 4.0 0.00 0.00 0.00 33 1014.4
20260508220617 70 258 1.0 3.0 0.00 0.00 0.00 35 1014.3
20260508220114 70 267 1.0 5.0 0.00 0.00 0.00 34 1014.1
20260508215611 70 286 1.0 3.0 0.00 0.00 0.00 34 1014.3
20260508215107 70 236 3.0 4.0 0.00 0.00 0.00 34 1014.5
20260508214605 70 256 0.0 5.0 0.00 0.00 0.00 34 1014.4
20260508214101 70 223 0.0 3.0 0.00 0.00 0.00 34 1014.2
20260508213558 70 208 3.0 3.0 0.00 0.00 0.00 35 1014.4
20260508213054 70 208 2.0 3.0 0.00 0.00 0.00 34 1014.4
20260508212551 69 252 1.0 4.0 0.00 0.00 0.00 33 1014.4
20260508212047 69 203 2.0 4.0 0.00 0.00 0.00 34 1014.4
20260508211543 70 214 5.0 5.0 0.00 0.00 0.00 33 1014.4
20260508211039 69 249 1.0 4.0 0.00 0.00 0.00 32 1014.4
20260508210536 69 189 0.0 4.0 0.00 0.00 0.00 33 1014.3
20260508210034 70 46 0.0 4.0 0.00 0.00 0.00 33 1014.6
20260508205531 70 193 0.0 2.0 0.00 0.00 0.00 34 1014.4
20260508205027 69 208 0.0 5.0 0.00 0.00 0.00 34 1014.5
20260508204524 70 275 2.0 5.0 0.00 0.00 0.00 34 1014.5
20260508204019 70 192 3.0 3.0 0.00 0.00 0.00 34 1014.5